FW5241 Weather Reports


time (UTC)temp
F
wind
direction
speed
knots
gust
knots
rain 1hr
in
rain 24hr
in
rain mn
in
humidity
%
barometer
mb
20260506044549 58 128 0.0 0.0 0.00 0.00 0.00 80 1005.6
20260506043021 58 128 0.0 0.0 0.00 0.00 0.00 81 1005.4
20260506041518 58 128 0.0 0.0 0.00 0.00 0.00 80 1005.5
20260506040015 58 128 0.0 0.0 0.00 0.00 0.00 79 1005.5
20260506034537 59 128 0.0 0.0 0.00 0.00 0.00 78 1005.6
20260506033013 59 128 0.0 0.0 0.00 0.00 0.00 77 1005.6
20260506031515 60 128 0.0 0.0 0.00 0.00 0.00 75 1005.6
20260506030012 61 128 0.0 0.0 0.00 0.00 0.00 73 1005.6
20260506024512 61 128 0.0 0.0 0.00 0.00 0.00 74 1005.6
20260506023012 62 128 0.0 0.0 0.00 0.00 0.00 72 1005.7
20260506021512 63 128 0.0 0.0 0.00 0.00 0.00 69 1005.6
20260506020011 65 128 0.0 0.0 0.00 0.00 0.00 66 1005.6
20260506014512 65 128 0.0 0.0 0.00 0.00 0.00 63 1005.6
20260506013010 65 122 0.0 0.0 0.00 0.00 0.00 67 1005.5
20260506011514 66 122 0.0 0.0 0.00 0.00 0.00 67 1005.4
20260506010009 66 122 0.0 0.0 0.00 0.00 0.00 63 1005.2
20260506004515 68 122 0.0 0.0 0.00 0.00 0.00 59 1004.7
20260506003009 69 122 0.0 0.0 0.00 0.00 0.00 55 1004.7
20260506001508 70 122 0.0 0.0 0.00 0.00 0.00 52 1004.6
20260506000006 71 122 0.0 0.0 0.00 0.00 0.00 51 1004.6
20260505234509 72 122 0.0 0.0 0.00 0.00 0.00 49 1004.6
20260505233008 72 123 0.0 0.0 0.00 0.00 0.00 50 1004.4
20260505231510 73 150 0.0 0.0 0.00 0.00 0.00 47 1004.4
20260505230008 73 115 0.0 0.0 0.00 0.00 0.00 46 1004.2
20260505224506 74 118 0.0 0.0 0.00 0.00 0.00 45 1004.1
20260505223003 74 57 0.0 0.0 0.00 0.00 0.00 48 1004.0
20260505221504 75 33 0.0 0.0 0.00 0.00 0.00 46 1003.9
20260505220108 75 136 0.0 0.0 0.00 0.00 0.00 44 1003.6
20260505213002 77 199 0.0 0.0 0.00 0.00 0.00 41 1003.2
20260505211604 77 215 0.0 0.0 0.00 0.00 0.00 42 1003.2
20260505210101 78 89 0.0 0.0 0.00 0.00 0.00 40 1003.1
20260505204609 77 126 0.0 0.0 0.00 0.00 0.00 41 1003.2
20260505203100 78 132 0.0 0.0 0.00 0.00 0.00 41 1003.1
20260505201602 77 115 0.0 0.0 0.00 0.00 0.00 43 1003.2
20260505200104 76 128 0.0 0.0 0.00 0.00 0.00 48 1003.2
20260505194558 76 127 0.0 0.0 0.00 0.00 0.00 44 1003.1
20260505193100 77 169 0.0 0.0 0.00 0.00 0.00 42 1002.9
20260505191601 78 69 0.0 0.0 0.00 0.00 0.00 46 1002.8
20260505190056 79 193 0.0 0.0 0.00 0.00 0.00 44 1003.0
20260505184601 79 87 0.0 0.0 0.00 0.00 0.00 40 1003.6
20260505183052 79 180 0.0 0.0 0.00 0.00 0.00 46 1004.0
20260505181550 78 102 0.0 0.0 0.00 0.00 0.00 41 1004.0
20260505180054 78 113 0.0 0.0 0.00 0.00 0.00 41 1004.1
20260505174606 78 126 0.0 0.0 0.00 0.00 0.00 43 1004.3
20260505173047 78 128 0.0 0.0 0.00 0.00 0.00 41 1004.4
20260505171545 78 122 0.0 0.0 0.00 0.00 0.00 42 1004.2
20260505170105 77 150 0.0 0.0 0.00 0.00 0.00 43 1004.1
20260505164543 77 322 0.0 0.0 0.00 0.00 0.00 47 1004.6
20260505163043 76 207 0.0 0.0 0.00 0.00 0.00 46 1004.8
20260505161540 77 136 0.0 0.0 0.00 0.00 0.00 45 1005.1
20260505153045 76 111 0.0 0.0 0.00 0.00 0.00 46 1005.4
20260505151534 76 147 0.0 0.0 0.00 0.00 0.00 47 1005.2
20260505124514 67 148 0.0 0.0 0.00 0.00 0.00 57 1006.4
20260505123009 67 110 0.0 0.0 0.00 0.00 0.00 57 1005.9
20260505121509 67 126 0.0 0.0 0.00 0.00 0.00 58 1006.3
20260505114614 63 166 0.0 0.0 0.00 0.00 0.00 63 1006.1
20260505113055 62 140 0.0 0.0 0.00 0.00 0.00 65 1006.2
20260505111604 61 111 0.0 0.0 0.00 0.00 0.00 68 1006.0
20260505101545 56 167 0.0 0.0 0.00 0.00 0.00 77 1005.8
20260505100045 56 130 0.0 0.0 0.00 0.00 0.00 75 1005.5
20260505094546 56 138 0.0 0.0 0.00 0.00 0.00 76 1005.4
20260505093042 56 136 0.0 0.0 0.00 0.00 0.00 76 1005.4
20260505091541 57 148 0.0 0.0 0.00 0.00 0.00 74 1005.3
20260505090048 57 128 0.0 0.0 0.00 0.00 0.00 74 1005.3
20260505084540 57 166 0.0 0.0 0.00 0.00 0.00 74 1005.4
20260505083047 57 142 0.0 0.0 0.00 0.00 0.00 73 1005.5
20260505081546 58 143 0.0 0.0 0.00 0.00 0.00 74 1005.4
20260505080040 57 151 0.0 0.0 0.00 0.00 0.00 71 1005.3
20260505074542 57 145 0.0 0.0 0.00 0.00 0.00 69 1005.5
20260505073036 56 123 0.0 0.0 0.00 0.00 0.00 70 1005.1
20260505071537 57 121 0.0 0.0 0.00 0.00 0.00 67 1005.2
20260505070038 58 132 0.0 0.0 0.00 0.00 0.00 66 1005.2
20260505064547 58 146 0.0 0.0 0.00 0.00 0.00 65 1005.3
20260505063028 58 135 0.0 0.0 0.00 0.00 0.00 65 1005.6
20260505061536 59 148 0.0 0.0 0.00 0.00 0.00 64 1005.6
20260505060029 59 140 0.0 0.0 0.00 0.00 0.00 64 1005.5